Location: Newark
(46.4000°N, 12.3500°E)
Time: 19:52:51
(UTC+00:00)

ISS - Visible Passes

Search period start: 22 October 2019 00:00
Search period end: 01 November 2019 00:00
Orbit: 411 x 421 km, 51.6° (Epoch: 23 October)

Date Brightness Start Highest point End Pass type
(mag) Time Alt. Az. Time Alt. Az. Time Alt. Az.
24 Oct -1.3 04:49:01 10° SSW 04:51:43 23° SE 04:54:26 10° E visible
25 Oct -0.8 04:01:27 10° SSE 04:03:21 14° SE 04:05:15 10° E visible
26 Oct -3.0 04:47:49 10° SW 04:51:06 53° SSE 04:54:24 10° ENE visible
27 Oct -2.2 04:00:54 20° SSW 04:02:36 33° SE 04:05:41 10° ENE visible
28 Oct -1.3 03:14:47 20° ESE 03:14:47 20° ESE 03:16:47 10° E visible
28 Oct -3.8 04:47:42 13° WSW 04:50:36 73° NNW 04:53:59 10° ENE visible
29 Oct -3.7 04:01:27 58° SW 04:02:00 77° SSE 04:05:22 10° ENE visible
30 Oct -1.5 03:15:04 25° E 03:15:04 25° E 03:16:42 10° ENE visible
30 Oct -3.2 04:47:58 17° W 04:50:13 43° NNW 04:53:28 10° ENE visible
31 Oct -3.6 04:01:30 55° NNW 04:01:31 55° NNW 04:04:50 10° ENE visible
